Tracking 25710 objects as of 6-Jul-2022
HD Live streaming from Space Station
objects crossing your sky now

MIRANDA (X-4)

Track MIRANDA (X-4) now!
10-day predictions
MIRANDA (X-4) is classified as:


NORAD ID: 7213
Int'l Code: 1974-013A
Perigee: 670.0 km
Apogee: 839.7 km
Inclination: 97.9 °
Period: 99.8 minutes
Semi major axis: 7125 km
RCS: 0.7069 m2 (medium)
Launch date: March 9, 1974
Source: United Kingdom (UK)
Launch site: AIR FORCE WESTERN TEST RANGE (AFWTR)
aabbcc
Your satellite tracking list
Your tracking list is empty




NASA's NSSDC Master Catalog

Two Line Element Set (TLE):
1 07213U 74013A   22187.55262122  .00000265  00000-0  83700-4 0  9998
2 07213  97.8882 126.6140 0119043  83.6221 277.8512 14.43278155511488
Source of the keplerian elements: AFSPC